Showing default

KSM1-C, 46906

Orbit data source: Space-Track

KSM1-C, 46906 is a payload satellite owned by Kleos Space (LU) in LEO that was launched on Sat, 07 Nov 2020 UTC via a PSLV-DL launch vehicle from the Sirharikota (SRI). Payload-class satellites include a variety of spacecraft equipped with specific instruments for various scientific and technological missions. These include communications satellites like Starlink; space stations such as the ISS; scientific satellites like the Hubble; Earth observation satellites from companies like Planet Labs, Umbra, and HawkEye 360; GPS; miniature CubeSats for education and research; and military/defense satellites.

Loading next visibility...
Identifier
46906, 2020-081B
Orbit
LEO
Last TLE update
7 hours ago
Origin
Manufacturer
GOMSpace
Mission
Operational Commercial Sigint
Bus & Motor
CUBESAT 6U, Unknown motor
Mass
~10 kg wet, ~10 kg dry
Launch date (UTC)
2020-11-07 (5 years ago)
Launch vehicle
PSLV-DL
Launch site
Sirharikota (SRI)
Object type
Payload
Rocket body
Debris
Shape & HBR
Box, 0.3 m
Radar Cross Section
0.080 m², Small (<0.1 m²)

Expand to show TLE details & history

TLE from 7 hours ago
0 KSM1-C
1 46906U 20081B   25186.61739143  .00006224  00000-0  29278-3 0  9997
2 46906  36.8952  26.3479 0003319 229.1551 130.8908 15.19262512256301
Epoch: 2025-07-05T14:49Z
TLE epoch observation values (Epoch: 2025-07-05T14:49:02.619Z)
Latitude
-0.00004°
Longitude
-119.76593°
Altitude
508.674 km
Speed
7.611 km/s
True Right ascension
01h 45m 23s
True Declination
0° 00' 00"
Sunlit
Object was in daylight at epoch
Visualization orbit readout
Latitude
-32.44493°
Longitude
115.73086°
Altitude
514.127 km
Speed
7.609 km/s
Apparent Right ascension
19h 33m 39s
Apparent Declination
-41° 22' 54"
Sunlit
Object is in full shadow
Visualization observer readout
Local Sidereal Time
10:07:34
Azimuth
105.574° ESE
Elevation
-61.011°
Doppler factor
1
Orbital elements
Apogee altitude
513.298 km
Perigee altitude
508.725 km
Semi-major axis
6,889.148 km
Eccentricity
0.00033
Inclination
36.8952°
RAAN
26.3479°
Arg. of periapsis
229.1551°
True anomaly
Unknown
Mean anomaly
130.8908°
Eccentric anomaly
Unknown
Mean motion
3.79573 °/min
Orbital period
94.84 mins
BSTAR
0.00029278
Loading maneuver chart data...
Loading SW <> Apogee altitude chart data...
Loading historical data...
Loading historical data...
Loading historical data...
Loading historical data...
Loading historical data...
Loading historical data...
Loading historical data...

KSM1-C Visibility forecast

Observer location: undefined°, undefined°

Span
Click to sort rows by Start time (UTC) header in descending order
Start Az.
Max El. time (UTC)
Max El. Az.
Max El.
End time (UTC)
End Az.
5 mins2025-07-06 17:55:25.209Z225.666° WSW2025-07-06 17:57:25.209Z170.328° S33.473°2025-07-06 18:00:25.209Z100.902° ESE
6 mins2025-07-06 19:34:25.209Z256.158° W2025-07-06 19:37:25.209Z169.722° S38.513°2025-07-06 19:40:25.209Z108.397° ESE
4 mins2025-07-06 21:15:25.209Z236.999° WSW2025-07-06 21:16:25.209Z212.44° SW26.011°2025-07-06 21:19:25.209Z144.611° SSE
|